CW1631 Weather Reports


Display with metric or nautical units.
time (UTC)temp
F
wind
direction
speed
MPH
gust
MPH
rain 1hr
in
rain 24hr
in
rain mn
in
humidity
%
barometer
mb
20260505013902 67 213 11.0 13.0 0.00 0.00 0.00 43 1006.1
20260505013358 66 219 9.0 11.0 0.00 0.00 0.00 43 1006.1
20260505012857 67 215 5.0 6.0 0.00 0.00 0.00 44 1006.2
20260505012354 67 215 9.0 11.0 0.00 0.00 0.00 43 1006.0
20260505011850 67 234 9.0 10.0 0.00 0.00 0.00 43 1006.3
20260505011347 67 209 12.0 13.0 0.00 0.00 0.00 42 1006.4
20260505010843 67 238 8.0 9.0 0.00 0.00 0.00 43 1005.8
20260505010339 67 219 8.0 10.0 0.00 0.00 0.00 42 1006.0
20260505005836 67 215 5.0 6.0 0.00 0.00 0.00 43 1005.8
20260505005332 68 206 7.0 9.0 0.00 0.00 0.00 42 1005.9
20260505004830 68 224 5.0 8.0 0.00 0.00 0.00 42 1005.8
20260505004326 68 194 8.0 9.0 0.00 0.00 0.00 41 1005.7
20260505003824 68 214 7.0 8.0 0.00 0.00 0.00 41 1005.7
20260505003321 68 200 4.0 6.0 0.00 0.00 0.00 41 1005.5
20260505002817 68 207 5.0 7.0 0.00 0.00 0.00 41 1005.4
20260505002314 68 215 9.0 11.0 0.00 0.00 0.00 40 1005.7
20260505001812 69 214 7.0 10.0 0.00 0.00 0.00 40 1005.7
20260505001309 69 200 7.0 8.0 0.00 0.00 0.00 40 1005.6
20260505000806 69 187 7.0 11.0 0.00 0.00 0.00 40 1005.7
20260505000304 69 200 9.0 10.0 0.00 0.00 0.00 39 1005.6
20260504235800 69 217 6.0 7.0 0.00 0.00 0.00 39 1005.6
20260504235256 69 213 7.0 8.0 0.00 0.00 0.00 39 1005.2
20260504234754 70 219 8.0 9.0 0.00 0.00 0.00 40 1005.4
20260504234251 70 212 10.0 13.0 0.00 0.00 0.00 38 1005.2
20260504233747 70 218 5.0 7.0 0.00 0.00 0.00 39 1005.0
20260504233243 70 207 6.0 7.0 0.00 0.00 0.00 39 1004.9
20260504232740 70 212 10.0 11.0 0.00 0.00 0.00 38 1005.0
20260504232237 70 225 7.0 8.0 0.00 0.00 0.00 39 1005.0
20260504231734 70 224 7.0 10.0 0.00 0.00 0.00 39 1005.1
20260504231231 70 218 8.0 11.0 0.00 0.00 0.00 39 1005.0
20260504230726 71 225 9.0 10.0 0.00 0.00 0.00 38 1005.0
20260504230225 71 214 9.0 10.0 0.00 0.00 0.00 37 1005.1
20260504225724 71 228 12.0 14.0 0.00 0.00 0.00 38 1005.1
20260504225220 71 218 11.0 14.0 0.00 0.00 0.00 37 1005.2
20260504224717 71 231 8.0 10.0 0.00 0.00 0.00 37 1005.0
20260504224214 71 212 12.0 14.0 0.00 0.00 0.00 38 1005.0
20260504223710 71 197 9.0 10.0 0.00 0.00 0.00 39 1005.1
20260504223206 71 246 9.0 14.0 0.00 0.00 0.00 39 1005.0
20260504222703 71 238 6.0 8.0 0.00 0.00 0.00 38 1005.0
20260504222200 71 224 6.0 7.0 0.00 0.00 0.00 38 1005.0
20260504221657 71 218 7.0 8.0 0.00 0.00 0.00 36 1004.9
20260504221155 71 242 8.0 10.0 0.00 0.00 0.00 38 1005.1
20260504220650 71 189 10.0 13.0 0.00 0.00 0.00 38 1004.9
20260504220149 71 258 7.0 8.0 0.00 0.00 0.00 39 1005.1
20260504215644 71 211 10.0 11.0 0.00 0.00 0.00 38 1004.8
20260504215142 72 208 11.0 11.0 0.00 0.00 0.00 37 1004.9
20260504214637 72 230 9.0 10.0 0.00 0.00 0.00 37 1005.1
20260504214134 71 220 7.0 8.0 0.00 0.00 0.00 38 1005.0
20260504213631 71 221 9.0 11.0 0.00 0.00 0.00 38 1005.0
20260504213128 72 230 10.0 13.0 0.00 0.00 0.00 37 1005.0
20260504212624 72 214 6.0 9.0 0.00 0.00 0.00 36 1005.1
20260504212121 72 214 12.0 15.0 0.00 0.00 0.00 36 1005.4
20260504211619 72 206 11.0 11.0 0.00 0.00 0.00 36 1005.2
20260504211115 72 211 6.0 7.0 0.00 0.00 0.00 35 1005.1
20260504210613 72 215 10.0 13.0 0.00 0.00 0.00 36 1005.5
20260504210109 73 235 6.0 9.0 0.00 0.00 0.00 36 1005.2
20260504205606 73 217 6.0 7.0 0.00 0.00 0.00 36 1005.4
20260504205104 72 264 4.0 6.0 0.00 0.00 0.00 35 1005.5
20260504204602 72 227 5.0 10.0 0.00 0.00 0.00 35 1005.5
20260504204101 73 210 16.0 18.0 0.00 0.00 0.00 37 1005.7
20260504203559 72 198 5.0 6.0 0.00 0.00 0.00 37 1005.4
20260504203056 72 214 14.0 21.0 0.00 0.00 0.00 38 1005.6
20260504202551 71 272 6.0 9.0 0.00 0.00 0.00 37 1005.6
20260504202048 71 206 11.0 11.0 0.00 0.00 0.00 37 1005.5
20260504201545 71 215 11.0 16.0 0.00 0.00 0.00 39 1005.8
20260504201043 71 223 11.0 11.0 0.00 0.00 0.00 37 1006.0
20260504200539 71 212 9.0 11.0 0.00 0.00 0.00 39 1005.8
20260504200036 70 230 7.0 7.0 0.00 0.00 0.00 39 1006.0
20260504195532 70 203 7.0 8.0 0.00 0.00 0.00 38 1006.1
20260504195029 71 236 2.0 2.0 0.00 0.00 0.00 37 1006.1
20260504194525 71 216 13.0 17.0 0.00 0.00 0.00 38 1006.3
20260504194021 71 217 15.0 18.0 0.00 0.00 0.00 36 1006.3
20260504193518 70 250 7.0 10.0 0.00 0.00 0.00 37 1006.2
20260504193017 70 218 1.0 2.0 0.00 0.00 0.00 38 1006.4
20260504192514 70 224 16.0 20.0 0.00 0.00 0.00 40 1006.2
20260504192012 70 199 11.0 11.0 0.00 0.00 0.00 39 1006.4
20260504191510 71 278 5.0 7.0 0.00 0.00 0.00 37 1006.6
20260504191006 71 224 15.0 22.0 0.00 0.00 0.00 38 1006.4
20260504190502 71 144 3.0 3.0 0.00 0.00 0.00 38 1006.6
20260504185958 71 255 3.0 3.0 0.00 0.00 0.00 39 1006.5
20260504185455 70 283 3.0 5.0 0.00 0.00 0.00 38 1006.7
20260504184952 70 222 15.0 18.0 0.00 0.00 0.00 38 1006.6
20260504184447 70 227 4.0 9.0 0.00 0.00 0.00 40 1006.6
20260504183943 70 230 12.0 15.0 0.00 0.00 0.00 39 1006.9
20260504183440 69 235 7.0 11.0 0.00 0.00 0.00 41 1006.7
20260504182938 68 221 7.0 9.0 0.00 0.00 0.00 41 1006.8
20260504182435 68 265 5.0 6.0 0.00 0.00 0.00 42 1006.8
20260504181932 68 205 11.0 13.0 0.00 0.00 0.00 43 1006.9
20260504181429 69 230 12.0 16.0 0.00 0.00 0.00 41 1007.0
20260504180928 68 231 5.0 9.0 0.00 0.00 0.00 39 1007.0
20260504180426 70 248 8.0 10.0 0.00 0.00 0.00 41 1007.1
20260504175924 69 228 6.0 11.0 0.00 0.00 0.00 39 1007.1
20260504175421 68 257 4.0 6.0 0.00 0.00 0.00 41 1006.9
20260504174918 69 277 12.0 15.0 0.00 0.00 0.00 44 1007.2
20260504174416 68 163 14.0 15.0 0.00 0.00 0.00 41 1007.4
20260504173913 68 239 15.0 18.0 0.00 0.00 0.00 40 1007.2
20260504173409 68 224 9.0 10.0 0.00 0.00 0.00 43 1007.2
20260504172907 67 227 19.0 21.0 0.00 0.00 0.00 43 1007.1
20260504172403 67 219 16.0 21.0 0.00 0.00 0.00 42 1007.3
20260504171859 68 230 8.0 14.0 0.00 0.00 0.00 45 1007.5
20260504171356 67 231 8.0 13.0 0.00 0.00 0.00 43 1007.3
20260504170854 67 218 20.0 23.0 0.00 0.00 0.00 43 1007.5
20260504170350 66 213 12.0 17.0 0.00 0.00 0.00 41 1007.6
20260504160309 64 203 9.0 10.0 0.00 0.00 0.00 45 1008.1
20260504150734 61 220 13.0 17.0 0.00 0.00 0.00 46 1008.7
20260504150230 61 277 14.0 17.0 0.00 0.00 0.00 45 1008.7
20260504141200 57 242 7.0 11.0 0.00 0.00 0.00 49 1009.4
20260504140657 58 206 18.0 21.0 0.00 0.00 0.00 46 1009.4
20260504140152 57 221 13.0 14.0 0.00 0.00 0.00 46 1009.6
20260504130620 52 217 9.0 10.0 0.00 0.00 0.00 51 1010.0
20260504130117 52 198 11.0 11.0 0.00 0.00 0.00 50 1009.9
20260504110509 46 249 2.0 2.0 0.00 0.00 0.00 66 1010.3
20260504100431 43 236 2.0 2.0 0.00 0.00 0.00 65 1010.2
20260504081824 46 236 5.0 5.0 0.00 0.00 0.00 60 1010.4
20260504081320 46 239 4.0 6.0 0.00 0.00 0.00 60 1010.2
20260504080816 45 236 5.0 6.0 0.00 0.00 0.00 63 1010.5
20260504080314 45 220 3.0 5.0 0.00 0.00 0.00 63 1010.4
20260504070241 45 270 2.0 2.0 0.00 0.00 0.00 64 1010.3
20260504060201 46 220 3.0 5.0 0.00 0.00 0.00 62 1010.3
20260504050629 48 256 3.0 5.0 0.00 0.00 0.00 60 1010.3
20260504050126 48 281 3.0 3.0 0.00 0.00 0.00 59 1010.3
20260504045623 48 218 4.0 7.0 0.00 0.00 0.00 59 1010.4
20260504045118 49 235 2.0 3.0 0.00 0.00 0.00 58 1010.3
20260504044616 49 229 3.0 3.0 0.00 0.00 0.00 57 1010.2
20260504044113 50 257 3.0 6.0 0.00 0.00 0.00 57 1010.3
20260504043610 50 261 4.0 6.0 0.00 0.00 0.00 57 1010.4
20260504043107 50 251 2.0 2.0 0.00 0.00 0.00 56 1010.5
20260504042604 50 244 3.0 3.0 0.00 0.00 0.00 56 1010.4
20260504042101 50 228 6.0 7.0 0.00 0.00 0.00 56 1010.4
20260504041556 50 270 3.0 3.0 0.00 0.00 0.00 57 1010.5
20260504041053 50 255 2.0 2.0 0.00 0.00 0.00 57 1010.5
20260504040550 50 242 3.0 3.0 0.00 0.00 0.00 57 1010.4
20260504040047 50 216 4.0 5.0 0.00 0.00 0.00 58 1010.2
20260504035544 50 236 3.0 5.0 0.00 0.00 0.00 58 1010.4
20260504035040 50 236 2.0 3.0 0.00 0.00 0.00 59 1010.2
20260504034538 50 280 1.0 1.0 0.00 0.00 0.00 59 1010.3
20260504034035 50 301 1.0 1.0 0.00 0.00 0.00 58 1010.2
20260504033533 51 261 1.0 1.0 0.00 0.00 0.00 58 1010.3
20260504033030 51 235 2.0 2.0 0.00 0.00 0.00 57 1010.3
20260504032527 51 210 2.0 2.0 0.00 0.00 0.00 56 1010.4
20260504032024 52 219 1.0 2.0 0.00 0.00 0.00 53 1010.5
20260504031521 52 227 1.0 2.0 0.00 0.00 0.00 52 1010.3
20260504031017 52 221 1.0 2.0 0.00 0.00 0.00 52 1010.5
20260504030514 52 258 1.0 1.0 0.00 0.00 0.00 50 1010.4
20260504030010 52 241 1.0 1.0 0.00 0.00 0.00 50 1010.3
20260504025507 52 283 1.0 2.0 0.00 0.00 0.00 50 1010.7
20260504025004 52 240 0.0 1.0 0.00 0.00 0.00 50 1010.7
20260504024502 52 267 0.0 0.0 0.00 0.00 0.00 50 1010.8
20260504023958 53 264 0.0 0.0 0.00 0.00 0.00 49 1010.8
20260504023455 53 297 3.0 5.0 0.00 0.00 0.00 49 1011.0
20260504022950 53 265 1.0 1.0 0.00 0.00 0.00 49 1010.8
20260504022447 53 277 4.0 5.0 0.00 0.00 0.00 49 1011.0
20260504021943 53 265 3.0 3.0 0.00 0.00 0.00 49 1011.1
20260504021441 52 255 1.0 2.0 0.00 0.00 0.00 50 1011.0
20260504020938 52 285 3.0 5.0 0.00 0.00 0.00 50 1010.8
20260504020434 52 279 4.0 6.0 0.00 0.00 0.00 50 1010.9
20260504015931 52 320 3.0 5.0 0.00 0.00 0.00 50 1010.9
20260504015427 52 275 4.0 5.0 0.00 0.00 0.00 50 1010.7
20260504014923 51 298 1.0 1.0 0.00 0.00 0.00 51 1010.9
20260504014419 51 232 3.0 3.0 0.00 0.00 0.00 52 1010.8